Theta_e
291 290 289 289 288 288 288 288 288 288 288 288 288 287 286 286 286 286 285 285 285 284 283 283 282 282 282 282 282 281 280 280 280 280 280 281 280 280 280 279 279 279 279 279 279 279 279 279 279 279 279 279 278 278 278 279 279 278 278 279 279 279
291 290 289 288 288 287 287 287 287 287 287 287 287 287 286 286 285 285 284 284 284 283 283 282 282 282 281 281 280 279 279 279 279 279 279 279 279 279 279 279 278 278 278 278 278 278 278 278 278 278 278 278 278 278 278 278 278 277 277 277 278 279
291 290 290 289 289 288 288 287 287 287 287 287 287 286 285 285 285 285 284 284 283 282 281 281 281 280 280 279 279 279 279 279 279 279 279 279 278 278 278 278 278 277 277 277 277 277 277 277 277 277 277 277 276 277 277 276 276 276 276 276 276 277
291 290 290 289 288 287 287 287 287 286 286 286 287 286 285 284 284 284 283 283 282 281 281 280 280 280 279 279 279 278 278 278 278 278 278 277 277 277 277 277 277 277 276 276 276 276 276 276 276 276 276 275 275 275 275 275 275 274 274 274 274 275
290 289 288 288 287 287 286 286 286 286 286 286 286 285 285 285 284 284 283 281 281 281 280 280 279 279 278 278 278 278 278 278 278 278 277 277 277 277 276 276 276 276 276 276 276 276 275 275 275 275 274 274 273 273 273 273 273 272 272 272 273 273
290 289 288 287 286 286 286 286 286 286 286 285 286 285 285 284 283 283 281 281 280 280 279 279 279 278 278 277 278 277 277 277 277 277 276 276 276 275 276 276 275 275 275 274 274 274 274 274 273 273 273 273 272 272 271 272 271 271 271 271 271 271
288 288 287 287 286 286 286 286 285 285 285 285 285 285 285 283 283 281 281 280 280 279 279 278 278 277 277 277 277 277 277 277 276 276 276 275 275 275 275 275 275 274 273 273 273 273 272 272 272 272 271 271 271 271 271 271 270 270 270 270 270 271
288 288 287 287 286 286 286 286 285 285 285 285 285 285 284 282 282 281 280 280 279 278 278 278 277 277 277 277 277 277 277 276 276 275 275 275 274 274 274 273 273 273 272 272 272 271 271 271 271 271 270 270 271 270 270 270 270 270 270 270 270 270
288 288 287 287 286 286 286 285 285 285 285 284 285 284 283 282 281 280 280 279 279 278 278 277 277 277 277 277 277 276 276 275 275 275 274 274 273 272 272 272 271 272 271 271 271 270 270 270 270 270 270 270 270 270 270 270 270 270 270 270 271 271
289 288 287 287 286 286 285 285 285 284 284 284 284 283 282 281 280 280 279 279 278 278 277 277 277 277 277 277 276 276 275 275 274 273 273 272 271 271 270 270 270 270 270 270 270 270 270 270 270 270 270 270 270 270 270 270 270 270 270 271 271 271
289 288 287 287 286 285 285 285 285 284 284 284 283 282 281 281 280 279 279 278 278 277 278 277 277 277 276 276 275 274 274 273 272 272 271 270 270 270 270 269 269 269 269 269 269 269 270 269 269 270 270 270 270 270 270 271 271 271 271 271 271 271
291 289 288 287 286 285 285 284 284 284 283 283 282 281 281 280 279 278 278 278 278 277 277 277 276 275 275 274 273 273 272 272 271 270 269 269 269 268 268 268 268 268 268 268 269 269 269 269 270 271 272 273 271 271 272 272 272 272 271 271 271 271
293 292 290 287 286 286 285 284 284 284 283 283 282 281 280 280 278 278 278 277 277 277 276 275 275 274 273 273 273 272 271 270 269 268 268 268 267 267 267 267 267 267 268 268 269 269 269 269 270 272 273 274 275 273 272 272 272 272 272 272 272 271
294 293 291 289 287 286 285 284 284 283 282 282 281 280 279 279 278 277 277 277 277 276 275 274 274 273 272 272 271 270 269 268 267 267 266 266 266 266 267 267 267 268 268 268 268 268 269 269 271 272 273 274 275 275 273 273 273 272 272 272 272 272
294 293 292 291 288 286 285 284 283 282 282 281 280 279 278 278 277 277 277 276 275 275 274 274 272 272 271 270 269 268 267 266 266 265 265 265 266 266 266 266 267 268 268 268 268 268 268 268 271 272 273 274 275 276 275 273 273 272 272 272 272 272
296 294 293 292 289 287 286 285 283 283 282 281 279 278 277 277 277 277 276 275 274 274 273 272 271 270 270 269 268 267 266 265 265 265 266 266 266 266 266 267 267 267 267 267 267 267 267 268 270 272 273 274 275 276 276 273 273 272 272 272 271 271
297 294 291 290 288 286 285 284 283 282 281 279 278 277 277 276 276 276 275 274 273 272 272 271 270 269 268 267 266 266 265 265 265 265 266 266 266 266 266 266 266 266 266 266 266 266 266 267 270 272 273 274 275 276 276 273 272 272 271 272 272 272
296 293 291 289 287 285 284 283 282 281 279 278 277 276 276 276 275 274 274 273 271 271 271 270 269 268 267 266 265 265 265 265 265 265 266 266 266 267 267 266 267 266 265 266 266 266 265 267 270 272 273 274 275 276 273 272 272 272 272 272 272 273
294 292 290 287 286 284 283 282 281 279 277 277 276 276 275 275 274 273 272 271 271 270 270 269 268 267 266 265 264 264 264 265 265 265 266 265 266 266 266 266 266 266 266 265 265 265 265 266 268 271 273 274 275 274 272 272 272 272 271 272 273 273
291 290 288 286 284 284 283 281 280 278 277 276 275 275 274 274 273 273 272 271 270 270 269 269 267 266 265 264 264 264 265 265 265 265 266 265 265 265 265 265 265 265 266 265 265 265 265 265 268 272 273 274 275 275 272 272 271 271 272 272 273 273
290 288 287 285 283 283 281 280 279 277 276 275 274 274 273 273 273 272 271 270 269 268 268 267 267 266 265 264 264 264 264 264 264 265 265 265 265 265 265 265 265 265 265 265 265 267 267 267 269 271 273 274 275 274 272 272 271 271 271 272 272 273
287 285 286 284 284 282 280 279 278 276 275 274 273 273 272 273 272 271 270 268 267 267 266 266 266 265 264 264 264 264 264 264 264 264 264 264 265 265 265 265 265 264 264 265 266 266 267 267 268 269 273 274 274 275 273 272 271 271 271 272 272 272
287 286 286 285 283 281 280 278 277 276 274 273 272 272 272 272 270 269 268 267 265 265 265 265 265 264 264 264 263 263 263 264 264 264 264 263 264 264 264 263 263 263 264 266 267 267 267 268 268 269 272 273 274 275 275 272 272 272 272 271 271 271
285 285 284 283 281 279 278 277 276 275 274 273 272 273 272 270 269 268 266 265 264 264 263 263 263 263 263 263 263 262 262 264 264 263 263 263 264 262 261 262 264 264 265 266 267 267 268 269 270 269 271 273 274 275 276 273 272 273 272 271 270 270
284 284 283 280 279 278 278 277 275 274 273 272 272 272 270 269 267 266 265 264 263 263 262 262 261 261 261 262 262 262 262 263 261 261 262 262 262 262 262 263 264 264 265 265 267 267 268 268 269 271 270 272 274 275 275 276 274 276 273 270 269 269
284 283 280 278 278 277 277 276 274 273 272 272 271 270 268 267 266 265 264 262 262 261 261 261 261 261 261 261 262 262 262 262 261 261 262 262 262 263 263 265 265 265 265 265 266 267 268 268 269 270 271 271 273 274 275 275 275 275 272 271 269 269
283 280 277 276 276 276 276 276 274 272 271 271 269 268 266 265 264 263 262 261 261 260 260 260 260 261 260 261 261 261 261 261 261 261 263 262 263 264 264 264 264 265 265 265 265 266 267 268 268 268 270 272 273 274 274 275 275 275 274 270 269 269
280 278 275 275 275 275 275 276 275 271 272 269 267 267 266 264 263 262 261 261 260 260 260 260 260 260 260 261 261 262 262 261 261 262 263 263 264 264 263 264 265 265 265 265 265 266 266 267 267 268 269 270 271 272 273 274 274 273 273 272 270 272
277 275 274 273 273 274 274 275 274 273 269 267 267 266 264 263 263 262 261 260 260 260 260 260 260 260 260 260 261 262 263 263 263 263 263 264 264 264 264 264 265 265 265 264 265 265 266 266 267 268 268 269 270 270 270 270 270 272 271 269 268 270
277 275 273 272 272 273 273 274 273 270 267 267 266 264 263 263 262 261 260 260 259 259 260 260 260 259 259 260 261 261 262 262 263 263 264 264 264 263 264 264 265 265 264 264 265 265 265 265 266 267 268 269 269 269 270 270 269 269 268 268 268 268
277 275 273 272 272 272 273 273 271 267 266 265 263 263 263 263 262 261 260 259 259 259 260 261 260 261 260 260 261 262 263 262 262 264 264 264 265 265 265 265 265 265 265 265 265 264 264 265 266 267 272 270 272 270 269 269 269 268 268 269 272 267
277 275 273 272 271 271 271 271 267 266 266 264 263 263 262 262 261 260 259 259 259 260 260 260 260 261 260 260 260 260 260 263 265 265 263 263 267 269 269 269 266 266 266 266 266 267 265 265 267 271 272 272 272 273 273 272 272 271 270 271 271 267
276 275 272 271 270 270 270 269 265 265 264 263 263 263 263 261 260 260 260 260 259 260 259 260 259 260 261 261 261 261 260 261 263 267 268 268 268 268 269 269 269 269 269 268 266 267 269 270 271 271 271 271 272 272 272 272 271 270 271 271 266 262
274 273 272 270 269 270 269 266 264 264 263 262 263 263 262 262 261 260 260 260 260 260 260 260 260 260 260 261 261 262 261 261 261 263 267 268 268 269 269 268 268 268 268 269 268 267 267 269 270 271 271 271 271 271 271 271 270 270 270 270 268 261
275 274 273 271 269 269 267 265 264 263 262 261 263 263 262 262 262 261 260 260 260 260 260 260 260 260 260 260 260 261 262 262 262 262 263 265 266 268 268 267 268 268 268 268 268 269 269 269 270 270 270 270 270 271 270 270 269 269 269 268 262 260
276 274 272 269 268 268 266 264 263 261 261 261 262 262 263 263 262 262 261 260 260 260 260 260 260 260 260 260 261 261 261 261 262 262 262 260 261 263 265 265 266 266 266 267 267 268 268 269 269 269 269 269 269 270 269 268 264 267 268 265 260 259
276 273 270 268 267 266 264 263 261 260 261 261 262 262 263 263 263 262 261 260 261 261 261 261 261 260 260 259 259 259 259 258 258 258 259 259 259 259 258 257 258 262 265 264 264 267 268 268 269 268 268 269 269 268 267 264 260 259 259 260 259 259
273 272 269 267 266 265 263 261 261 260 260 260 261 263 263 262 262 261 260 260 261 261 261 260 260 260 259 259 259 259 259 258 258 257 256 256 256 256 255 256 256 256 260 263 264 266 266 267 268 268 267 267 267 267 264 257 257 257 257 258 258 258
Wind_Speed
12 13 13 12 11 12 13 13 13 13 13 15 17 17 16 16 14 14 12 13 10 11 13 14 12 11 10 9 9 8 8 8 7 7 6 5 5 5 5 6 6 6 6 7 7 7 8 8 8 8 8 8 8 9 9 9 9 10 10 10 10 10
11 12 12 13 14 13 13 14 12 14 14 15 16 13 14 15 16 15 14 13 11 11 12 12 11 11 11 10 9 8 8 8 7 7 6 6 5 5 6 6 6 7 7 6 7 8 8 8 8 8 8 8 9 9 9 9 10 11 11 11 10 10
10 11 11 10 10 10 11 13 14 14 13 15 17 17 17 17 16 15 14 12 12 14 14 14 13 12 11 10 10 9 8 7 7 6 5 5 6 5 6 6 7 7 7 7 8 8 8 8 8 7 7 8 9 9 10 10 11 12 11 11 13 12
6 8 8 8 10 12 13 13 12 14 15 15 16 15 15 16 16 15 14 12 12 15 14 14 12 12 10 11 10 9 8 8 7 6 6 6 6 6 6 7 6 6 7 8 8 9 9 9 8 8 8 8 9 10 8 9 10 11 12 11 13 13
10 10 11 13 14 12 13 13 13 14 15 16 16 16 16 16 15 13 12 12 13 15 13 13 12 12 12 12 10 10 9 8 7 7 7 6 6 6 6 6 6 7 7 8 8 8 8 8 8 7 8 8 9 10 10 9 10 11 12 12 13 13
5 7 10 12 12 13 15 13 12 13 14 15 15 17 17 16 14 14 13 13 13 14 14 13 12 13 12 11 9 10 9 8 8 7 7 7 5 6 5 6 6 7 7 8 8 8 8 8 8 7 8 9 9 10 11 10 11 11 11 13 13 13
10 10 10 11 11 11 12 13 14 14 15 15 16 16 16 14 13 14 14 14 15 14 14 13 12 13 12 11 9 11 10 9 8 7 7 6 6 6 5 5 5 6 7 7 8 7 7 7 7 8 9 9 9 10 10 11 11 11 12 12 13 13
7 9 11 10 11 12 12 12 13 14 14 16 14 15 15 14 13 14 14 14 15 14 14 13 12 13 12 11 10 10 9 8 8 7 6 6 6 5 5 5 5 5 6 7 7 7 7 7 7 8 9 9 9 10 10 10 11 11 11 12 12 12
11 12 10 10 11 11 11 12 13 14 14 15 15 14 13 13 13 14 14 14 14 13 14 13 12 11 11 11 9 9 8 8 7 7 6 5 5 5 5 5 5 5 6 7 7 7 7 7 8 8 9 9 10 10 10 10 11 11 11 11 13 14
9 10 13 13 12 12 11 11 12 13 14 16 15 14 13 11 14 14 14 14 13 12 13 12 11 11 11 10 9 9 8 8 7 6 5 5 5 5 5 5 5 6 6 6 6 7 6 7 8 8 9 9 9 9 9 9 11 13 14 15 15 14
12 12 13 13 12 13 13 12 12 12 12 13 14 13 13 13 14 14 14 13 13 13 12 12 11 10 10 10 10 9 8 8 7 6 5 5 4 4 4 4 5 6 7 7 7 7 7 7 7 7 7 7 8 9 10 12 13 13 14 15 15 16
18 15 13 11 14 15 14 13 13 14 15 15 14 13 13 13 13 14 13 13 12 12 12 12 10 10 10 10 9 9 9 8 7 6 5 5 5 4 4 5 6 7 7 7 7 7 6 7 6 8 13 13 10 11 10 11 12 13 14 15 16 16
18 17 16 13 13 15 14 13 13 12 13 13 14 14 13 14 13 13 13 13 12 12 12 11 10 10 10 10 9 8 8 8 6 6 6 5 5 5 4 5 7 7 7 7 6 6 6 7 6 12 14 15 18 13 12 12 13 13 13 15 14 16
17 18 18 18 16 12 11 11 13 14 15 14 14 13 13 13 12 13 12 12 12 12 12 11 10 9 9 9 8 8 8 7 6 6 5 5 5 5 5 6 7 7 6 5 6 6 7 7 10 14 15 16 17 16 13 12 12 12 13 13 14 15
15 17 19 17 16 14 12 12 12 14 15 14 14 12 13 12 12 12 12 11 11 12 11 10 10 9 9 9 9 8 7 7 6 6 6 6 5 5 6 7 7 6 6 6 6 6 7 8 11 14 15 16 17 18 16 11 12 13 13 15 15 16
10 13 17 18 17 16 9 12 10 9 10 10 10 11 11 12 11 10 11 9 10 11 11 9 9 9 9 9 8 8 7 7 6 6 5 4 5 6 7 7 7 6 6 5 5 6 7 9 11 14 15 16 17 18 16 12 13 13 14 15 16 17
11 10 11 12 12 9 10 10 10 11 10 10 11 10 10 8 9 8 10 9 9 9 9 10 9 9 9 9 8 8 7 7 6 6 5 5 5 6 6 6 6 6 5 4 5 5 7 8 13 14 16 16 17 18 17 12 12 13 13 14 17 16
8 9 11 8 10 9 10 11 11 10 9 10 11 8 7 7 7 8 8 8 8 8 9 10 10 9 9 9 8 8 7 6 6 6 5 5 5 5 5 5 5 5 5 5 5 6 7 8 13 14 15 16 17 19 12 11 12 11 12 15 15 16
5 7 7 10 11 10 11 10 10 11 10 9 8 9 9 9 10 8 8 8 8 9 10 10 10 10 10 9 9 8 7 7 6 5 4 4 5 5 5 5 5 4 4 4 5 6 7 7 11 13 14 15 17 15 11 11 11 12 15 14 15 18
3 6 11 12 12 12 10 13 16 17 14 13 11 15 11 10 11 11 10 10 10 10 10 10 10 11 10 9 9 8 7 5 4 4 4 5 5 5 5 5 5 4 4 4 5 6 6 7 10 14 14 16 17 16 11 11 12 13 12 12 16 13
7 9 10 12 14 13 16 19 20 19 19 17 12 14 13 11 10 10 10 10 10 9 8 8 9 10 10 10 9 8 8 7 5 4 4 4 4 4 4 5 4 3 3 4 5 9 8 7 8 12 13 16 17 15 11 12 12 12 13 15 14 16
8 9 12 16 17 15 18 17 18 21 20 18 18 21 21 17 15 14 12 9 9 7 7 7 8 7 8 9 8 7 7 6 5 5 5 5 4 4 4 4 3 3 3 4 5 5 5 5 5 8 14 15 17 18 13 10 10 12 15 15 16 14
10 13 15 8 11 15 16 20 20 18 16 15 17 24 20 18 15 15 12 11 10 9 9 7 7 9 8 7 8 7 6 5 6 6 6 5 4 3 3 3 4 4 4 3 4 4 4 4 6 7 13 15 17 19 17 10 11 12 13 14 14 14
7 6 5 6 11 13 16 19 21 19 15 14 14 11 13 13 12 11 11 12 11 11 10 9 8 7 7 7 7 7 6 5 5 5 5 5 4 4 5 5 4 2 2 2 3 3 3 5 9 8 12 15 18 18 21 12 12 15 14 15 14 16
10 10 11 11 13 14 17 19 21 18 18 16 11 12 13 11 11 12 12 12 11 11 11 10 11 9 7 7 7 8 7 6 5 5 5 5 4 5 6 5 2 1 1 2 2 2 3 5 7 11 11 15 17 19 20 22 18 23 15 13 14 16
10 10 9 10 12 14 19 21 20 21 19 12 11 11 13 12 11 12 12 11 11 11 11 11 11 10 8 9 9 9 8 7 6 6 5 5 5 5 5 3 1 0 0 2 3 4 4 6 6 9 14 13 18 19 21 21 23 23 15 14 14 15
11 8 8 7 10 11 19 19 20 23 19 15 15 15 15 14 14 13 12 11 11 10 11 10 9 9 9 9 9 8 8 8 7 6 6 5 5 4 3 2 1 1 1 2 4 4 5 6 7 7 10 16 18 19 21 22 23 22 23 15 12 14
6 9 11 8 7 12 18 17 19 25 20 14 12 12 14 17 19 17 12 12 11 12 12 13 11 10 10 10 8 7 7 8 8 6 6 6 5 4 4 2 2 2 1 2 3 5 5 6 7 8 9 11 14 16 19 23 21 22 23 21 17 23
8 11 13 14 11 14 18 18 16 17 18 14 12 13 15 15 15 14 12 12 11 12 12 11 10 10 10 8 7 6 6 6 6 6 6 6 5 5 4 4 3 2 1 2 3 5 5 6 6 7 9 8 9 10 12 13 13 18 18 14 12 14
14 14 15 14 14 14 18 15 17 17 16 11 14 17 15 17 14 14 12 11 10 9 10 9 12 11 8 7 7 7 6 5 6 6 6 7 6 6 5 4 4 2 1 2 3 4 5 5 6 7 8 9 10 10 11 11 10 10 10 11 12 12
15 16 17 17 11 16 18 17 15 17 19 19 19 21 17 13 12 12 13 10 10 9 8 8 9 8 8 8 6 5 6 6 6 6 4 3 4 5 5 4 4 3 1 1 2 3 4 5 6 7 13 13 17 15 13 11 12 11 10 14 22 15
17 17 17 14 13 17 17 17 17 16 12 19 23 24 25 21 13 12 11 10 10 9 8 8 8 7 8 8 7 6 3 2 6 5 6 6 9 7 6 6 4 3 2 1 1 2 3 4 6 14 17 17 18 19 21 20 20 19 16 20 23 15
16 14 14 14 16 19 19 18 20 22 19 19 19 23 27 19 12 10 9 10 8 9 9 9 8 7 7 7 7 6 6 5 5 9 10 9 8 6 8 9 8 6 4 2 2 2 6 8 12 14 15 16 17 19 20 21 20 19 20 21 14 9
14 16 20 18 19 21 19 19 21 22 19 12 12 16 20 14 13 12 11 10 9 11 10 9 9 9 8 7 7 7 8 7 7 7 10 9 8 10 10 10 9 7 6 5 5 3 3 7 11 13 14 16 17 19 20 19 19 18 19 19 17 8
18 19 19 20 22 20 19 21 21 20 22 17 13 12 16 14 13 14 11 10 10 10 10 9 9 9 8 9 8 7 7 8 9 9 9 7 6 9 10 10 9 9 7 7 6 8 8 9 11 13 14 16 17 19 20 19 18 18 20 17 9 7
17 18 17 20 25 22 22 23 21 23 23 22 22 17 13 16 14 14 13 11 12 11 9 9 9 8 8 7 6 6 5 4 5 6 7 7 6 6 6 7 9 9 8 8 9 10 11 11 13 13 14 16 18 19 20 19 12 15 17 15 8 8
16 14 16 22 22 21 21 23 22 20 21 24 23 18 14 17 19 13 18 28 18 9 10 8 8 7 7 6 6 5 5 4 4 5 4 5 7 6 3 0 2 5 7 6 6 11 11 11 13 13 14 16 17 18 19 15 9 11 10 9 7 9
14 15 17 19 20 22 25 23 18 15 21 21 19 15 22 22 16 11 11 10 13 8 7 7 7 7 7 7 6 6 6 6 5 5 5 4 4 5 4 2 1 1 4 6 8 10 9 10 12 13 13 13 15 16 14 7 8 8 9 9 10 10
Wind_Direction
197 197 195 195 191 183 184 182 180 185 185 184 186 185 178 172 172 171 173 169 168 169 170 170 170 172 172 171 167 170 181 187 195 202 206 208 210 217 228 236 245 247 253 257 265 267 267 269 270 271 271 270 271 273 273 273 271 270 272 271 272 271
200 196 189 190 191 183 180 180 181 185 184 181 186 180 172 170 172 173 173 171 162 162 163 170 169 168 168 168 167 178 182 190 195 203 208 211 211 221 226 234 240 250 252 257 263 264 266 265 267 267 267 269 269 272 274 276 275 274 272 274 272 273
194 192 187 188 189 182 175 179 183 182 180 183 184 180 174 174 174 171 174 165 165 162 167 168 167 165 165 165 172 177 182 187 194 201 206 206 216 214 224 229 238 244 250 255 257 260 261 263 268 270 269 269 271 271 272 275 274 275 273 273 273 268
180 183 179 185 183 184 181 178 175 179 183 183 183 179 178 174 175 174 170 166 164 167 166 166 163 164 163 167 171 177 179 186 190 191 196 210 213 215 226 232 237 242 247 250 255 256 260 263 266 268 269 270 274 274 273 275 278 277 276 276 275 274
178 185 189 190 189 184 179 177 179 183 182 180 185 182 183 177 174 166 164 163 165 166 164 161 162 162 166 167 171 178 180 182 185 185 195 203 207 212 218 227 232 239 243 251 253 257 261 264 266 266 267 269 272 275 274 274 275 275 275 274 273 274
173 189 191 192 190 189 185 180 180 182 183 185 184 187 181 174 169 165 162 164 165 164 162 163 163 163 166 168 173 176 179 177 180 184 193 199 203 211 217 222 232 238 245 250 253 254 256 258 264 269 269 268 270 272 274 274 272 272 273 273 275 276
182 193 196 195 193 190 185 183 182 182 185 183 188 186 180 171 164 163 164 163 162 165 163 163 161 164 167 168 171 174 174 175 176 181 190 192 203 209 216 225 230 240 246 249 253 256 259 263 266 269 268 269 267 268 272 273 271 269 271 272 273 274
188 187 196 200 200 190 188 185 183 184 184 188 184 181 176 169 162 163 163 164 162 164 164 162 162 165 167 166 168 169 171 170 176 180 182 191 203 208 220 229 237 239 246 250 255 256 261 264 265 264 266 267 269 268 269 271 273 273 272 272 272 273
199 205 204 203 196 194 192 185 183 184 184 184 183 181 171 165 161 163 163 163 162 161 164 162 162 160 162 164 162 162 165 169 173 177 179 183 192 206 220 228 235 243 247 253 255 257 260 262 263 261 264 265 267 269 268 273 276 275 275 276 280 281
206 200 199 194 196 192 192 192 186 185 183 183 180 177 167 161 162 164 164 161 162 161 160 157 155 157 157 155 154 157 160 161 163 169 168 175 192 206 220 227 234 241 247 251 255 258 258 260 259 262 264 268 270 272 273 275 281 284 285 282 279 279
203 200 197 198 188 187 191 188 186 185 185 182 178 173 169 158 160 162 160 161 161 160 154 149 151 147 145 148 151 152 157 157 158 161 167 177 190 206 216 229 235 244 249 249 250 254 256 256 258 257 260 266 273 275 283 285 283 281 282 283 282 281
216 203 197 185 185 190 186 186 186 186 183 181 176 170 163 154 163 160 159 161 158 150 149 145 141 144 142 147 152 154 156 157 157 161 170 181 196 206 219 225 237 242 245 249 250 253 255 256 255 257 262 268 276 283 285 288 286 286 283 284 285 282
226 220 208 186 186 191 186 184 182 179 179 178 174 167 161 157 160 158 157 157 151 144 141 139 142 143 148 151 151 151 153 154 155 160 171 182 197 209 218 229 234 234 237 241 250 257 259 261 258 264 268 276 283 288 290 288 288 283 285 286 285 287
229 226 221 212 199 180 177 175 177 175 181 175 170 162 154 155 155 153 153 148 140 140 140 141 141 143 147 146 149 149 148 149 151 159 171 184 198 209 214 227 230 234 237 240 247 256 262 266 267 273 278 285 289 291 292 292 292 292 290 288 287 289
230 227 226 220 207 193 184 169 164 179 177 170 165 143 151 153 148 145 143 138 138 141 141 140 141 142 144 148 148 145 145 150 156 165 178 193 198 204 218 223 228 231 234 241 247 258 266 268 271 274 282 289 294 296 298 294 291 291 289 290 289 289
242 225 223 218 207 192 151 166 162 159 154 146 135 139 144 137 142 138 142 137 141 141 139 137 137 141 142 142 141 145 150 156 166 172 181 185 196 214 223 224 227 232 235 241 256 266 269 271 275 281 289 295 300 303 302 295 294 292 289 285 285 287
257 229 218 214 191 146 137 152 147 144 140 138 136 139 136 137 136 136 140 138 137 133 135 137 139 139 141 142 144 148 153 158 164 173 184 189 203 214 219 221 223 228 228 243 250 255 265 267 273 284 295 302 305 306 309 305 299 290 280 283 283 278
243 208 208 175 140 145 149 156 145 134 135 125 133 132 131 127 129 132 131 132 133 137 141 140 142 138 140 143 145 148 154 162 169 176 184 195 210 215 222 229 229 230 231 236 245 254 264 270 280 294 300 304 309 313 314 305 296 289 288 287 280 276
208 193 154 147 149 144 155 146 132 122 125 133 131 128 135 140 140 145 140 138 140 146 148 147 140 140 142 145 145 151 158 161 170 175 182 198 214 217 222 226 232 232 233 240 245 257 268 277 284 297 306 312 316 318 311 304 297 296 294 287 288 287
133 144 157 151 154 156 146 134 137 134 139 147 145 145 151 152 160 154 151 150 147 144 143 145 142 141 143 147 150 151 152 151 159 171 191 199 216 221 220 230 239 237 237 245 252 261 271 278 290 300 309 316 317 318 314 310 308 301 293 290 294 286
165 158 151 154 164 164 148 153 155 157 156 147 154 153 154 165 156 153 148 140 134 134 133 132 137 140 144 144 147 147 148 153 160 166 180 215 227 232 232 234 241 239 253 254 254 267 271 275 285 305 315 317 319 319 314 311 305 297 298 300 300 303
128 147 164 183 184 156 161 152 154 163 156 155 143 157 167 161 139 114 102 109 111 108 110 121 126 126 129 135 130 134 137 142 152 165 185 209 218 227 235 228 240 249 263 260 251 259 278 288 297 307 314 320 321 321 318 310 304 306 306 308 308 304
176 187 192 161 138 151 156 161 158 165 159 150 156 180 149 128 127 128 127 124 122 124 123 123 128 128 126 129 130 133 141 154 162 169 186 201 220 221 238 238 248 245 252 263 273 276 284 288 308 307 316 319 320 321 323 310 311 311 308 307 308 309
168 162 135 130 149 147 160 162 171 170 153 160 179 151 123 129 127 120 121 126 126 126 125 127 123 119 123 127 134 137 146 159 159 170 180 201 199 206 232 234 228 240 269 285 281 280 296 315 320 318 316 318 319 320 321 318 314 312 311 312 309 310
183 184 176 151 156 156 164 168 173 169 154 170 149 130 138 130 127 128 128 127 130 132 133 133 135 136 135 139 144 146 154 155 157 181 192 201 195 208 226 219 214 236 297 302 306 307 322 324 323 319 318 318 320 321 322 320 318 317 317 314 309 310
184 183 158 139 155 164 163 169 172 165 169 158 134 132 119 127 127 130 128 132 135 136 138 138 138 136 140 147 152 155 159 164 165 181 190 191 198 201 208 198 190 257 319 324 320 329 330 325 322 320 320 320 323 324 324 323 321 320 319 315 311 309
185 167 154 165 160 156 171 173 170 171 168 139 140 145 143 139 135 134 134 134 136 131 132 134 134 140 144 150 155 156 162 165 168 180 187 187 202 197 202 188 150 103 15 327 327 328 328 328 324 322 319 324 325 325 324 324 323 324 323 319 312 308
160 167 167 162 174 159 177 180 171 175 160 136 139 143 137 136 133 133 133 132 134 137 140 140 143 147 151 156 161 165 162 160 174 179 173 184 187 191 190 173 136 96 21 334 329 329 329 328 326 323 326 326 325 326 325 325 327 326 325 323 315 311
173 184 182 180 172 175 183 183 183 165 127 149 141 142 139 135 135 131 134 137 134 142 144 139 145 150 156 159 159 166 160 162 177 173 172 181 180 185 179 158 121 95 34 331 326 327 330 330 326 327 326 323 324 326 325 326 325 328 328 323 311 318
192 191 184 189 174 165 182 181 174 156 133 136 145 140 141 140 142 139 138 131 132 143 147 141 139 138 143 159 162 160 160 170 177 173 180 179 180 178 166 141 122 109 77 323 327 326 331 324 325 328 328 331 332 329 327 326 325 331 332 326 323 334
197 195 192 187 138 164 178 176 167 150 147 144 143 151 147 142 126 120 127 132 133 138 143 134 144 147 144 150 156 161 163 168 174 175 159 164 172 176 154 132 122 118 126 2 317 330 321 325 326 329 335 335 334 334 334 332 336 337 336 329 336 338
198 196 194 179 158 169 178 176 159 151 149 146 152 154 144 133 134 128 135 139 139 140 134 134 141 138 140 146 152 144 126 179 187 171 168 178 190 175 140 126 125 121 122 125 336 335 314 313 318 333 339 339 339 339 340 341 342 341 336 336 343 341
202 193 184 180 172 178 180 173 156 155 155 159 162 162 147 136 135 133 135 139 136 143 136 138 134 143 143 146 144 146 145 154 190 198 182 174 166 150 129 107 99 82 84 89 103 354 344 334 342 346 345 345 345 346 346 346 348 344 342 345 351 339
192 189 194 183 176 181 178 172 169 167 150 155 165 167 149 144 136 141 144 138 135 141 142 141 143 143 143 144 149 151 153 158 159 180 185 167 160 146 124 102 87 79 80 65 51 37 7 355 357 354 352 351 351 352 352 351 350 348 348 348 349 335
199 201 196 183 179 176 175 170 172 168 162 154 156 163 151 146 127 129 135 136 139 143 143 143 144 148 145 147 149 155 164 163 166 162 164 158 151 143 114 85 76 72 75 62 49 32 27 16 8 2 1 359 358 358 360 357 353 353 354 355 349 342
205 205 194 182 178 175 172 172 172 169 168 164 151 163 155 152 147 136 140 137 143 143 148 147 146 144 141 141 139 145 152 163 167 162 155 153 150 145 118 80 66 59 56 49 41 27 25 17 13 10 8 6 4 3 3 2 351 347 354 1 351 340
204 196 185 180 178 176 174 175 171 162 165 167 158 155 159 147 132 109 150 153 150 135 144 143 140 130 125 125 128 130 139 138 145 146 153 158 150 148 137 91 11 22 40 43 32 20 20 16 14 13 11 9 6 8 3 356 352 353 346 348 348 338
192 191 181 176 177 178 181 169 141 131 131 146 143 152 145 136 130 132 130 137 144 125 126 124 123 128 129 136 132 134 136 143 149 147 143 139 128 129 132 151 112 311 325 35 33 17 10 10 14 14 13 9 9 11 10 10 0 348 343 338 340 338